{"data":{"norad_id":67085,"intl_designator":"2025-298L","name":"STARLINK-35794","alt_names":[],"object_type":"PAYLOAD","status":"ACTIVE","operator":null,"country":"US","launch_date":"2025-12-14","launch_site_code":"AFWTR","launch_vehicle":null,"mission":null,"orbit_class":"UNKNOWN","rcs_meters":null,"size_class":null,"mass_kg":null,"dimensions":null,"purposes":["comms"],"wikipedia_slug":null,"has_3d_model":false,"image_url":null,"decayed_at":null,"tle_current":{"epoch":"2026-05-25T02:25:09.742944Z","epoch_age_seconds":56526,"freshness":"FRESH","line1":"1 67085U 25298L   26145.10080721  .00002303  00000+0  20071-3 0  9999","line2":"2 67085  70.0008 181.7760 0003662 268.0462  92.0278 14.98335470 24668","mean_motion":14.9833547,"eccentricity":0.0003662,"inclination_deg":70.0008,"raan_deg":181.776,"arg_perigee_deg":268.0462,"mean_anomaly_deg":92.0278,"bstar":0.00020071,"rev_number":2466,"period_min":96.106648266159,"perigee_km":569.49382102988,"apogee_km":574.58412991432,"semimajor_km":6950.1759754721,"source":"CELESTRAK","updated_at":"2026-05-25T13:38:21.467517Z"}}}